Weather History for Montreal Mirabel, QC

Change the Weather History Date:

Monday, November 12, 2012

  Actual Average Record
Temperature  
Mean Temperature 46 °F -  
Max Temperature 62 °F 38 °F 62 °F (2012)
Min Temperature 30 °F 25 °F 17 °F (1997)
Degree Days  
Heating Degree Days 19    
Moisture  
Dew Point 39 °F    
Average Humidity 78    
Maximum Humidity 100    
Minimum Humidity 55    
Precipitation  
Precipitation 0.00 in - - ()
Sea Level Pressure  
Sea Level Pressure 30.12 in    
Wind  
Wind Speed 6 mph ()    
Max Wind Speed 15 mph    
Max Gust Speed 31 mph    
Visibility 13.8 miles    
Events Rain    
Averages and records for this station are not official NWS values.
T = Trace of Precipitation, MM = Missing Value Source: Averaged Metar Reports

Daily Weather History Graph

Daily Weather History Graph

Search for Another Location

Airport:

Trip Planner

Search our weather history database for the weather conditions in past years. The results will help you decide how hot, cold, wet, or windy it might be!

Date:

Astronomy

Nov. 12, 2012 Rise Set
Actual Time 6:52 AM EST 4:28 PM EST
Civil Twilight 6:20 AM EST 5:00 PM EST
Nautical Twilight 5:44 AM EST 5:35 PM EST
Astronomical Twilight 5:09 AM EST 6:10 PM EST
Moon 5:11 AM EST (11/12) 3:32 PM EST (11/12)
Length of Visible Light 10h 39m
Length of Day
9h 35m
Waning Crescent, 2% of the Moon is Illuminated
Nov 12
Waning Crescent
Nov 13
New
Nov 20
First Quarter
Nov 28
Full
Dec 6
Last Quarter

Hourly Weather History & Observations

Time (EST) Temp. Windchill Dew Point Humidity Pressure Visibility Wind Dir Wind Speed Gust Speed Precip Events Conditions
12:00 AM 32.0 °F 26.4 °F 30.2 °F 93% 30.28 in 15.0 mi NE 5.8 mph - N/A   Partly Cloudy
1:00 AM 32.0 °F 25.6 °F 30.2 °F 93% 30.27 in 15.0 mi NNE 6.9 mph - N/A   Partly Cloudy
2:00 AM 32.0 °F 25.6 °F 30.2 °F 93% 30.27 in 15.0 mi NNE 6.9 mph - N/A   Partly Cloudy
3:00 AM 32.0 °F 27.5 °F 30.2 °F 93% 30.26 in 15.0 mi NNE 4.6 mph - N/A   Partly Cloudy
4:00 AM 30.2 °F 23.4 °F 28.4 °F 93% 30.25 in 15.0 mi NE 6.9 mph - N/A   Partly Cloudy
5:00 AM 30.2 °F 25.4 °F 28.4 °F 93% 30.25 in 15.0 mi North 4.6 mph - N/A   Partly Cloudy
6:00 AM 32.0 °F 26.4 °F 30.2 °F 93% 30.24 in 25.0 mi NNE 5.8 mph - N/A   Partly Cloudy
7:00 AM 30.2 °F 25.4 °F 30.2 °F 100% 30.25 in 25.0 mi NNE 4.6 mph - N/A   Scattered Clouds
8:00 AM 33.8 °F 28.6 °F 32.0 °F 93% 30.24 in 25.0 mi NE 5.8 mph - N/A   Partly Cloudy
9:00 AM 39.2 °F 33.6 °F 35.6 °F 87% 30.22 in 20.0 mi NE 8.1 mph - N/A   Scattered Clouds
10:00 AM 44.6 °F 41.4 °F 37.4 °F 76% 30.21 in 6.0 mi North 5.8 mph - N/A   Haze
11:00 AM 48.2 °F - 39.2 °F 71% 30.19 in 10.0 mi NE 5.8 mph - N/A   Mostly Cloudy
12:00 PM 53.6 °F - 41.0 °F 62% 30.16 in 12.0 mi NNE 4.6 mph - N/A   Mostly Cloudy
1:00 PM 55.4 °F - 42.8 °F 63% 30.13 in 12.0 mi NE 5.8 mph - N/A   Mostly Cloudy
2:00 PM 55.4 °F - 44.6 °F 67% 30.10 in 12.0 mi NE 4.6 mph - N/A   Overcast
3:00 PM 55.4 °F - 44.6 °F 67% 30.07 in 15.0 mi NE 4.6 mph - N/A   Overcast
4:00 PM 53.6 °F - 44.6 °F 72% 30.04 in 15.0 mi NE 5.8 mph - N/A   Mostly Cloudy
5:00 PM 51.8 °F - 44.6 °F 76% 30.01 in 25.0 mi East 3.5 mph - N/A   Mostly Cloudy
6:00 PM 55.4 °F - 46.4 °F 72% 29.99 in 25.0 mi SE 5.8 mph - N/A   Overcast
7:00 PM 59.0 °F - 46.4 °F 63% 29.96 in 25.0 mi SSE 10.4 mph - N/A   Mostly Cloudy
8:00 PM 59.0 °F - 46.4 °F 63% 29.94 in 25.0 mi South 10.4 mph - N/A   Mostly Cloudy
9:00 PM 59.0 °F - 46.4 °F 63% 29.92 in 25.0 mi South 11.5 mph 20.7 mph N/A   Overcast
10:00 PM 62.6 °F - 46.4 °F 55% 29.91 in 25.0 mi South 15.0 mph 21.9 mph N/A   Overcast
11:00 PM 62.6 °F - 48.2 °F 59% 29.90 in 25.0 mi SSW 15.0 mph 23.0 mph N/A   Overcast
11:38 PM 57.2 °F - 51.8 °F 82% 29.91 in 15.0 mi WSW 13.8 mph 31.1 mph N/A Rain Light Rain